weather.gov     
National Weather Service

Regional Weather Roundup
NWS Homepage
This page is being discontinued on March 12, 2014.
The same data is available at this site. Please update your bookmarks.
Thank you, and we apologize for the inconvenience.
Please send an email to SR-SRH.Webmaster@noaa.gov with any concerns.


Current Version
Previous Version:    01  02  03  04  05  06  07  08  09  10  11  12  13  14  15  16  17  18  19  20  21  22  23  24  25  26  27  28  29  30  
   31  32  33  34  35  36  37  38  39  40  41  42  43  44  45  46  47  48  49  50  51  52  53  54  55  56  57  58  59  60  
[Printable]
456
ASCA44 KEWX 190120
RWRMX

LATIN AMERICA AND CARIBBEAN REGIONAL WEATHER ROUNDUP
NATIONAL WEATHER SERVICE AUSTIN/SAN ANTONIO TX
800 PM CDT FRI APR 18 2014

NOTE: "FAIR" INDICATED FEW OR NO CLOUDS BELOW 12,000 FEET WITH NO
SIGNIFICANT WEATHER AND/OR OBSTRUCTIONS TO VISIBILITY.

BAJA CALIFORNIA

CITY           SKY/WX    TMP DP  RH WIND       PRES   REMARKS
LORETO         PTSUNNY   77  64  65 CALM      29.80S
LA PAZ         CLOUDY    73  54  49 SW12      29.88
MEXICALI       CLOUDY    82  43  24 E16       29.77
S.J. DEL CABO  MOCLDY    79  52  38 SE12      29.84S
TIJUANA        CLOUDY    63  50  63 W13       29.92R

NORTHWESTERN MEXICO

CITY           SKY/WX    TMP DP  RH WIND       PRES   REMARKS
CULIACAN       MOCLDY    81  63  54 W9        29.86
DURANGO        CLOUDY    77  23  13 SW15      30.08
GUAYMAS        PTSUNNY   77  66  69 S12       29.79
HERMOSILLO     CLOUDY    82  57  42 S13       29.84
CD. JUAREZ     CLOUDY    75  50  41 S17       29.94
LOS MOCHIS     CLOUDY    77  61  57 E9        29.83F
OBREGON        MOCLDY    75  64  69 SW8       29.80

NORTHEASTERN MEXICO

CITY           SKY/WX    TMP DP  RH WIND       PRES   REMARKS
CHIHUAHUA      MOCLDY    77  36  22 S9        30.03
MATAMOROS      MOCLDY    68  63  83 NE9       30.12
MONTERREY      MOCLDY    73  59  60 E9        30.05S
NUEVO LAREDO   CLOUDY    79  61  53 S8        30.05
REYNOSA        MOCLDY    70  59  68 E9        30.10
SALTILLO       MOCLDY    64  55  72 N12       30.17S
TORREON        MOCLDY    81  45  28 NE14      29.96F
CD. VICTORIA   CLOUDY    75  63  64 E14       30.07

WESTERN MEXICO

CITY           SKY/WX    TMP DP  RH WIND       PRES   REMARKS
AGUASCALIENTES MOCLDY    79  25  13 NE3       30.12
COLIMA         PTCLDY    79  55  44 SW17      29.94R
DEL BAJIO      MOCLDY    79  45  29 NE10      30.09S
GUADALAJARA    MOCLDY    84  36  17 W7        30.02
MANZANILLO     CLEAR     79  68  69 W12       29.77R
MAZATLAN       MOCLDY    75  63  64 W14       29.85R
ZACATECAS      MOCLDY    75  32  20 CALM      30.17S

CENTRAL MEXICO

CITY           SKY/WX    TMP DP  RH WIND       PRES   REMARKS
MEXICO CITY    TSTM      61  50  67 N7        30.30R
MORELIA        MOCLDY    73  52  46 NE7       30.12  THUNDER
POZA RICA        N/A    N/A N/A N/A MISG        N/A
PUEBLA         CLOUDY    61  50  67 NW8       30.32R
QUERETARO      MOCLDY    63  41  45 NE23      30.22
S. LUIS POTOSI CLOUDY    61  50  67 E10       30.21R
TAMPICO        MOCLDY    72  68  88 NE16      30.06R
TOLUCA         RAIN      55  46  71 CALM      30.37R

SOUTHERN MEXICO

CITY           SKY/WX    TMP DP  RH WIND       PRES   REMARKS
ACAPULCO       CLEAR     84  75  74 W5        29.80R HX  92
OAXACA         MOCLDY    72  50  46 NE16      30.13R
VERACRUZ       MOCLDY    77  68  73 N16       30.00R
ZIHUATANEJO    CLEAR     82  72  69 SW8       29.79

YUCATAN PENINSULA

CITY           SKY/WX    TMP DP  RH WIND       PRES   REMARKS
CAMPECHE       PTCLDY    84  72  65 N12       29.90S
CANCUN         PTCLDY    75  72  88 CALM      29.95F
CHETUMAL       PTCLDY    82  75  78 E6        29.90R
CD. DEL CARMEN MOCLDY    81  75  83 N21       29.92
COZUMEL        MOCLDY    73  72  94 CALM      29.96S
MERIDA         MOCLDY    81  59  47 N7        29.95R
TAPACHULA      MOCLDY    84  75  74 CALM      29.81R HX  92
TUX. GUTIERREZ PTCLDY    81  66  61 NW21      29.88R
VILLAHERMOSA   PTCLDY    79  72  78 NW9       29.95R

CENTRAL AMERICA

CITY           SKY/WX    TMP DP  RH WIND       PRES   REMARKS
MANAGUA        PTCLDY    86  72  62 SE12      29.77S HX  92

CARIBBEAN

CITY           SKY/WX    TMP DP  RH WIND       PRES   REMARKS
ARUBA          PTCLDY    81  75  83 E22       29.86R
CURACAO        PTCLDY    81  73  78 E16       29.92R
KINGSTON       PTCLDY    82  72  69 SE17      29.92R
NASSAU         PTCLDY    79  72  78 SE9       30.03R
SAN JUAN       PTCLDY    81  68  65 E13       30.05R
SANTO DOMINGO  PTCLDY    79  72  78 E12       30.00R
ST. CROIX      PTCLDY    79  68  69 E14       30.04
ST. KITTS      PTCLDY    77  70  78 E15       30.03S
ST. MAARTEN    MOCLDY    79  70  73 E16       30.03S
ST. THOMAS     PTCLDY    79  72  78 E16G23    30.05

$$





U.S. Dept. of Commerce
NOAA National Weather Service
1325 East West Highway
Silver Spring, MD 20910
E-mail: w-nws.webmaster@noaa.gov
Page last modified: May 16, 2007
NATIONAL WEATHER SERVICE: for Safety, for Work, for Fun - FOR LIFE